�N����,����,�~����,�C��,���x,�C��,����,���ϕ���,�ő�u�ԕ���,�ő厞����,���˗�,�I�_���x,�n�����x,�ő啗���N��,DTYPE
"18/03/26","00:10",0.0,6.9,90.7,1016.8,295.5,1.2,1.8,289.6,0.00,5.5,10.2,"00:01:36",1
"18/03/26","00:20",0.0,6.9,91.5,1017.1,289.7,1.6,2.0,311.9,0.00,5.7,10.2,"00:10:40",1
"18/03/26","00:30",0.0,7.2,91.7,1016.6,285.8,1.8,2.7,265.9,0.00,6.0,10.0,"00:27:28",1
"18/03/26","00:40",0.0,7.0,90.4,1016.6,315.5,2.2,3.3,313.0,0.00,5.6,10.1,"00:30:08",1
"18/03/26","00:50",0.0,6.9,91.3,1016.6,295.7,1.6,2.4,313.7,0.00,5.6,10.0,"00:48:48",1
"18/03/26","01:00",0.0,6.6,90.4,1016.6,321.5,2.2,3.2,319.0,0.00,5.2,9.8,"00:57:44",1
"18/03/26","01:10",0.0,6.2,91.9,1016.6,318.2,2.5,2.8,323.5,0.00,5.0,9.8,"01:00:58",1
"18/03/26","01:20",0.0,6.1,93.2,1016.4,310.9,1.6,2.8,317.2,0.00,5.1,9.8,"01:15:20",1
"18/03/26","01:30",0.0,5.9,93.0,1016.4,308.5,2.0,2.6,324.0,0.00,4.9,9.7,"01:28:56",1
"18/03/26","01:40",0.0,5.7,93.2,1016.1,318.8,2.1,2.8,324.0,0.00,4.7,9.7,"01:38:24",1
"18/03/26","01:50",0.0,5.6,94.3,1016.4,305.9,1.8,2.6,323.9,0.00,4.8,9.5,"01:42:56",1
"18/03/26","02:00",0.0,6.2,94.9,1016.4,292.0,1.8,2.4,312.0,0.00,5.5,9.6,"01:58:00",1
"18/03/26","02:10",0.0,6.1,93.3,1016.1,310.7,2.2,2.8,323.0,0.00,5.1,9.5,"02:06:48",1
"18/03/26","02:20",0.0,5.7,94.9,1016.1,321.3,2.2,2.9,324.2,0.00,5.0,9.6,"02:10:32",1
"18/03/26","02:30",0.0,5.6,94.9,1016.1,305.3,1.2,2.4,319.8,0.00,4.9,9.4,"02:21:12",1
"18/03/26","02:40",0.0,5.5,94.8,1016.4,309.8,1.2,2.6,323.8,0.00,4.8,9.6,"02:36:08",1
"18/03/26","02:50",0.0,5.2,95.3,1016.1,326.4,2.3,2.7,324.0,0.00,4.6,9.4,"02:46:48",1
"18/03/26","03:00",0.0,5.4,96.2,1016.1,323.8,2.0,2.4,320.8,0.00,4.9,9.4,"02:50:08",1
"18/03/26","03:10",0.0,5.6,96.4,1016.4,313.0,1.8,2.4,318.2,0.00,5.1,9.2,"03:00:08",1
"18/03/26","03:20",0.0,5.5,96.1,1016.1,304.6,1.7,2.1,319.9,0.00,5.0,9.3,"03:18:40",1
"18/03/26","03:30",0.0,5.2,95.6,1015.9,314.2,1.8,2.2,321.4,0.00,4.6,9.0,"03:29:52",1
"18/03/26","03:40",0.0,5.1,96.8,1016.1,324.4,2.0,2.5,327.7,0.00,4.7,9.3,"03:33:12",1
"18/03/26","03:50",0.0,5.1,96.4,1016.1,325.1,2.0,2.4,321.3,0.00,4.6,8.9,"03:44:16",1
"18/03/26","04:00",0.0,4.8,96.5,1015.6,297.0,1.0,1.7,319.9,0.00,4.3,8.9,"03:50:08",1
"18/03/26","04:10",0.0,4.7,97.2,1016.1,297.1,1.6,2.2,319.9,0.00,4.3,9.0,"04:08:26",1
"18/03/26","04:20",0.0,4.8,97.4,1015.9,316.6,1.8,2.4,314.2,0.00,4.5,9.1,"04:12:24",1
"18/03/26","04:30",0.0,4.8,97.3,1016.4,321.3,2.2,2.7,323.8,0.00,4.4,8.9,"04:25:44",1
"18/03/26","04:40",0.0,4.5,97.4,1015.9,304.0,1.5,2.4,322.8,0.00,4.2,9.0,"04:38:40",1
"18/03/26","04:50",0.0,4.6,97.9,1015.9,314.0,1.6,2.1,323.3,0.00,4.3,8.7,"04:40:08",1
"18/03/26","05:00",0.0,4.7,98.4,1015.6,309.1,1.7,2.4,322.9,0.00,4.5,8.8,"04:54:56",1
"18/03/26","05:10",0.0,4.6,96.6,1016.1,306.9,1.6,2.1,321.0,0.00,4.1,8.8,"05:08:50",1
"18/03/26","05:20",0.0,4.5,97.9,1016.1,316.7,1.6,2.0,325.5,0.00,4.2,8.7,"05:10:32",1
"18/03/26","05:30",0.0,4.4,98.1,1016.4,313.6,1.8,2.2,318.8,0.00,4.2,8.5,"05:23:28",1
"18/03/26","05:40",0.0,4.4,97.0,1016.1,298.3,1.2,1.9,315.6,0.00,4.0,8.4,"05:30:32",1
"18/03/26","05:50",0.0,4.1,98.2,1016.4,291.4,1.0,2.1,317.6,0.00,3.9,8.2,"05:48:32",1
"18/03/26","06:00",0.0,4.2,97.3,1016.4,316.0,2.0,2.5,323.2,0.00,3.9,8.6,"05:57:04",1
"18/03/26","06:10",0.0,4.1,98.4,1016.4,301.1,1.2,2.0,316.5,0.00,3.9,8.5,"06:02:24",1
"18/03/26","06:20",0.0,4.2,97.8,1016.6,314.9,1.8,2.5,314.4,0.00,3.9,8.3,"06:16:56",1
"18/03/26","06:30",0.0,4.2,98.3,1016.6,311.2,1.5,2.1,330.6,0.00,4.0,8.3,"06:20:40",1
"18/03/26","06:40",0.0,4.3,97.9,1016.6,277.9,1.0,1.2,278.6,0.00,4.0,8.4,"06:35:36",1
"18/03/26","06:50",0.0,4.5,98.8,1017.1,300.0,1.6,2.2,319.3,0.00,4.4,8.4,"06:46:32",1
"18/03/26","07:00",0.0,5.0,97.6,1016.6,308.1,1.6,2.5,323.5,0.02,4.7,8.2,"06:50:56",1
"18/03/26","07:10",0.0,5.4,98.8,1017.1,285.5,0.7,1.2,291.8,0.03,5.3,8.3,"07:02:40",1
"18/03/26","07:20",0.0,6.6,98.0,1017.3,290.2,1.0,1.6,295.3,0.06,6.3,8.2,"07:16:40",1
"18/03/26","07:30",0.0,7.2,96.8,1017.5,295.0,0.7,1.1,311.1,0.08,6.8,8.4,"07:25:12",1
"18/03/26","07:40",0.0,8.1,95.5,1017.5,316.4,1.3,1.9,329.3,0.09,7.5,8.5,"07:33:28",1
"18/03/26","07:50",0.0,8.7,90.8,1017.5,315.7,0.6,1.4,324.2,0.10,7.3,8.7,"07:41:52",1
"18/03/26","08:00",0.0,9.2,87.0,1017.8,303.5,0.3,1.1,302.3,0.12,7.2,8.7,"07:55:28",1
"18/03/26","08:10",0.0,9.8,85.1,1018.0,288.8,0.5,1.0,309.8,0.15,7.5,8.9,"08:04:40",1
"18/03/26","08:20",0.0,10.3,82.6,1017.8,286.7,0.6,1.2,324.0,0.18,7.5,9.2,"08:15:20",1
"18/03/26","08:30",0.0,10.8,80.2,1018.2,278.9,0.5,1.2,260.1,0.21,7.6,9.2,"08:28:24",1
"18/03/26","08:40",0.0,11.1,78.7,1018.2,160.4,0.6,1.2,111.3,0.24,7.6,9.4,"08:34:24",1
"18/03/26","08:50",0.0,11.3,77.3,1019.0,133.7,0.8,1.8,122.5,0.25,7.5,9.6,"08:42:40",1
"18/03/26","09:00",0.0,12.1,75.0,1019.0,212.9,0.8,2.0,198.9,0.28,7.8,9.7,"08:55:20",1
"18/03/26","09:10",0.0,12.4,70.8,1019.0,225.5,1.5,2.7,237.2,0.28,7.3,9.9,"09:04:00",1
"18/03/26","09:20",0.0,12.8,69.4,1019.2,193.3,1.1,1.9,200.4,0.32,7.4,10.2,"09:17:52",1
"18/03/26","09:30",0.0,13.4,66.1,1019.0,197.9,0.6,1.6,116.7,0.38,7.2,10.2,"09:23:12",1
"18/03/26","09:40",0.0,13.7,65.2,1019.0,234.0,0.8,1.9,199.2,0.42,7.3,10.7,"09:34:56",1
"18/03/26","09:50",0.0,14.5,64.1,1018.5,228.8,1.1,2.7,229.5,0.44,7.8,10.8,"09:43:20",1
"18/03/26","10:00",0.0,14.2,63.8,1018.0,179.9,1.0,2.9,130.4,0.33,7.5,11.1,"09:52:16",1
"18/03/26","10:10",0.0,14.7,63.1,1018.0,240.8,0.7,2.0,186.7,0.28,7.8,11.2,"10:03:36",1
"18/03/26","10:20",0.0,15.1,63.2,1017.5,213.6,1.0,2.8,138.5,0.38,8.2,11.4,"10:16:40",1
"18/03/26","10:30",0.0,15.4,62.7,1017.8,193.5,1.2,2.6,202.3,0.35,8.4,11.6,"10:22:16",1
"18/03/26","10:40",0.0,15.4,59.8,1017.1,189.8,1.0,2.6,138.6,0.43,7.7,11.8,"10:36:08",1
"18/03/26","10:50",0.0,15.9,60.4,1017.1,176.1,1.3,2.7,130.5,0.41,8.3,11.9,"10:44:56",1
"18/03/26","11:00",0.0,15.7,60.0,1016.8,165.8,1.2,2.5,198.0,0.37,8.0,12.4,"10:58:32",1
"18/03/26","11:10",0.0,16.4,58.4,1016.6,173.9,1.2,2.8,136.5,0.41,8.3,12.4,"11:08:56",1
"18/03/26","11:20",0.0,17.0,57.1,1016.4,199.0,1.1,2.4,181.3,0.49,8.5,12.7,"11:11:20",1
"18/03/26","11:30",0.0,17.3,56.0,1016.1,174.1,1.7,3.4,132.7,0.54,8.5,12.8,"11:20:02",1
"18/03/26","11:40",0.0,17.9,57.1,1015.9,176.8,1.7,3.1,189.8,0.54,9.3,13.2,"11:36:56",1
"18/03/26","11:50",0.0,17.9,54.0,1015.6,184.1,1.8,4.3,159.8,0.54,8.5,13.5,"11:48:32",1
"18/03/26","12:00",0.0,18.3,54.7,1015.9,158.0,1.3,2.9,131.2,0.49,9.1,13.7,"11:57:44",1
"18/03/26","12:10",0.0,18.5,53.8,1015.4,164.6,1.8,3.7,112.3,0.48,9.0,13.9,"12:01:04",1
"18/03/26","12:20",0.0,18.9,53.5,1015.2,156.9,1.7,3.7,189.8,0.50,9.3,14.1,"12:19:04",1
"18/03/26","12:30",0.0,19.1,50.0,1014.9,164.4,1.8,3.6,183.2,0.53,8.5,14.2,"12:20:32",1
"18/03/26","12:40",0.0,19.5,50.1,1014.7,89.6,1.1,3.4,168.6,0.54,8.9,14.5,"12:31:04",1
"18/03/26","12:50",0.0,20.0,52.1,1014.5,138.2,1.5,2.8,115.2,0.54,9.9,14.8,"12:43:04",1
"18/03/26","13:00",0.0,19.7,49.0,1014.2,87.4,1.5,3.3,116.8,0.53,8.7,15.0,"12:50:32",1
"18/03/26","13:10",0.0,19.7,46.7,1014.0,212.7,1.7,4.7,231.3,0.52,8.0,15.0,"13:09:28",1
"18/03/26","13:20",0.0,20.6,50.8,1013.8,233.5,1.1,3.6,224.9,0.50,10.1,15.3,"13:14:16",1
"18/03/26","13:30",0.0,20.2,46.7,1013.3,148.2,2.2,5.9,140.8,0.48,8.5,15.3,"13:25:20",1
"18/03/26","13:40",0.0,20.7,43.7,1013.3,153.5,2.6,4.4,127.0,0.49,8.0,15.7,"13:31:44",1
"18/03/26","13:50",0.0,20.7,42.7,1013.0,149.7,3.1,5.6,154.1,0.49,7.6,15.8,"13:44:32",1
"18/03/26","14:00",0.0,20.5,40.4,1013.0,147.5,3.2,5.6,109.6,0.48,6.6,15.9,"13:50:32",1
"18/03/26","14:10",0.0,21.1,43.2,1013.0,173.6,2.5,4.4,127.3,0.45,8.2,15.8,"14:02:00",1
"18/03/26","14:20",0.0,20.6,42.4,1012.8,160.3,2.6,5.4,190.6,0.44,7.4,16.0,"14:10:48",1
"18/03/26","14:30",0.0,21.0,40.2,1012.8,193.0,2.7,5.0,194.3,0.41,7.0,15.8,"14:21:12",1
"18/03/26","14:40",0.0,21.4,41.0,1012.3,170.3,2.6,5.6,140.1,0.39,7.7,16.2,"14:35:12",1
"18/03/26","14:50",0.0,21.3,41.5,1012.1,159.9,2.5,4.5,229.2,0.39,7.7,16.5,"14:44:08",1
"18/03/26","15:00",0.0,21.4,41.2,1011.9,129.7,2.2,4.4,127.4,0.38,7.7,16.2,"14:56:16",1
"18/03/26","15:10",0.0,21.5,40.7,1011.6,122.0,2.7,5.7,119.2,0.36,7.6,16.2,"15:07:04",1
"18/03/26","15:20",0.0,21.7,40.3,1011.2,148.5,3.1,6.4,118.3,0.35,7.7,16.2,"15:11:12",1
"18/03/26","15:30",0.0,21.9,39.3,1011.6,140.2,2.3,5.2,121.4,0.32,7.5,16.2,"15:21:04",1
"18/03/26","15:40",0.0,21.9,37.2,1011.9,185.7,1.7,3.7,169.4,0.30,6.7,16.3,"15:30:40",1
"18/03/26","15:50",0.0,21.6,27.0,1011.4,348.7,1.7,4.0,341.0,0.21,1.9,16.2,"15:43:36",1
"18/03/26","16:00",0.0,22.3,28.1,1011.4,283.0,1.2,3.1,318.4,0.20,3.0,16.2,"15:52:48",1
"18/03/26","16:10",0.0,22.2,25.1,1011.4,279.1,1.3,2.7,304.5,0.19,1.4,16.0,"16:04:00",1
"18/03/26","16:20",0.0,22.0,26.4,1011.4,251.8,1.3,4.3,233.2,0.17,1.9,16.3,"16:17:36",1
"18/03/26","16:30",0.0,21.8,27.0,1011.4,233.1,1.6,3.4,193.2,0.16,2.0,16.1,"16:21:28",1
"18/03/26","16:40",0.0,21.7,23.5,1011.4,227.8,1.8,3.7,231.1,0.17,0.0,16.0,"16:35:36",1
"18/03/26","16:50",0.0,21.6,30.9,1011.4,227.2,1.2,3.2,213.5,0.13,3.8,16.0,"16:49:52",1
"18/03/26","17:00",0.0,20.9,33.1,1011.4,239.1,1.7,4.4,224.0,0.10,4.1,15.9,"16:54:00",1
"18/03/26","17:10",0.0,20.4,32.9,1011.6,211.4,1.8,4.2,216.0,0.08,3.6,15.7,"17:09:28",1
"18/03/26","17:20",0.0,20.2,32.3,1011.9,239.2,2.0,3.6,234.6,0.06,3.2,15.6,"17:10:02",1
"18/03/26","17:30",0.0,19.8,35.2,1011.9,214.3,1.6,2.8,197.8,0.04,4.0,15.5,"17:27:04",1
"18/03/26","17:40",0.0,19.5,35.9,1011.9,232.4,1.2,3.4,217.7,0.02,4.0,15.4,"17:30:32",1
"18/03/26","17:50",0.0,19.2,35.7,1012.3,250.4,1.0,1.8,249.0,0.01,3.7,15.0,"17:45:04",1
"18/03/26","18:00",0.0,18.9,36.3,1012.1,286.4,1.1,2.2,330.1,0.00,3.7,15.0,"17:56:32",1
"18/03/26","18:10",0.0,18.0,42.7,1012.3,329.3,1.1,2.0,346.3,0.00,5.2,14.9,"18:09:12",1
"18/03/26","18:20",0.0,17.2,43.4,1011.9,355.9,0.8,1.6,351.4,0.00,4.7,14.8,"18:14:40",1
"18/03/26","18:30",0.0,16.2,48.5,1012.6,317.4,0.7,1.9,324.6,0.00,5.4,14.7,"18:28:00",1
"18/03/26","18:40",0.0,15.4,51.3,1012.6,332.6,1.3,1.9,335.7,0.00,5.4,14.5,"18:34:24",1
"18/03/26","18:50",0.0,14.7,54.7,1012.6,328.6,1.2,1.9,328.2,0.00,5.7,14.2,"18:49:04",1
"18/03/26","19:00",0.0,14.1,56.4,1013.3,321.5,1.3,2.2,329.8,0.00,5.6,14.3,"18:53:44",1
"18/03/26","19:10",0.0,13.7,58.0,1012.8,302.1,1.3,1.9,311.6,0.00,5.6,14.1,"19:09:56",1
"18/03/26","19:20",0.0,14.0,57.9,1013.3,329.9,2.5,3.6,335.8,0.00,5.9,13.9,"19:11:52",1
"18/03/26","19:30",0.0,13.7,58.5,1013.0,320.3,1.6,2.9,338.1,0.00,5.8,13.9,"19:21:20",1
"18/03/26","19:40",0.0,13.4,58.7,1013.3,305.0,1.8,2.6,309.6,0.00,5.5,13.7,"19:38:40",1
"18/03/26","19:50",0.0,13.1,59.3,1013.3,301.4,2.0,2.7,300.5,0.00,5.4,13.5,"19:40:02",1
"18/03/26","20:00",0.0,13.0,61.1,1013.5,318.3,2.2,3.1,308.1,0.00,5.7,13.4,"19:59:22",1
"18/03/26","20:10",0.0,12.7,62.4,1013.8,320.0,2.0,3.2,304.0,0.00,5.7,13.4,"20:02:18",1
"18/03/26","20:20",0.0,12.5,64.7,1013.8,328.6,2.1,3.1,339.0,0.00,6.1,13.1,"20:18:32",1
"18/03/26","20:30",0.0,11.9,66.3,1013.5,328.4,1.6,2.6,346.8,0.00,5.9,12.9,"20:20:10",1
"18/03/26","20:40",0.0,11.6,68.7,1014.0,320.2,1.3,1.7,341.5,0.00,6.1,13.0,"20:38:50",1
"18/03/26","20:50",0.0,11.0,68.7,1013.8,317.2,1.6,2.0,310.9,0.00,5.5,12.9,"20:43:02",1
"18/03/26","21:00",0.0,10.6,72.1,1013.8,299.5,1.3,2.0,304.6,0.00,5.8,12.7,"20:54:20",1
"18/03/26","21:10",0.0,11.0,72.1,1014.0,309.7,2.0,2.7,315.7,0.00,6.2,12.5,"21:05:34",1
"18/03/26","21:20",0.0,11.0,70.6,1014.2,291.4,1.8,2.4,277.9,0.00,5.9,12.5,"21:13:44",1
"18/03/26","21:30",0.0,10.7,70.4,1014.0,300.1,1.7,3.3,302.2,0.00,5.6,12.5,"21:22:32",1
"18/03/26","21:40",0.0,10.7,70.6,1014.0,294.7,1.7,2.2,326.4,0.00,5.6,12.3,"21:31:58",1
"18/03/26","21:50",0.0,10.6,70.1,1014.0,314.9,1.7,2.2,318.8,0.00,5.4,12.1,"21:42:16",1
"18/03/26","22:00",0.0,9.8,72.1,1014.2,332.2,1.7,2.1,338.5,0.00,5.1,12.1,"21:51:08",1
"18/03/26","22:10",0.0,9.2,75.4,1014.0,283.2,1.5,1.8,293.2,0.00,5.1,12.1,"22:09:54",1
"18/03/26","22:20",0.0,9.1,77.6,1014.5,297.8,1.3,2.6,304.7,0.00,5.4,11.8,"22:11:52",1
"18/03/26","22:30",0.0,9.1,75.4,1014.5,324.6,1.7,3.4,318.0,0.00,5.0,11.8,"22:23:12",1
"18/03/26","22:40",0.0,8.4,80.1,1014.0,302.3,1.7,2.6,310.4,0.00,5.2,11.7,"22:31:04",1
"18/03/26","22:50",0.0,8.3,81.4,1014.5,306.4,1.6,2.2,325.3,0.00,5.3,11.6,"22:48:42",1
"18/03/26","23:00",0.0,8.0,80.8,1014.5,313.6,1.8,2.7,324.3,0.00,4.9,11.5,"22:57:20",1
"18/03/26","23:10",0.0,7.6,83.4,1014.2,309.6,2.0,2.5,318.4,0.00,5.0,11.5,"23:07:44",1
"18/03/26","23:20",0.0,7.5,84.4,1014.7,307.4,1.2,2.2,316.1,0.00,5.1,11.3,"23:10:56",1
"18/03/26","23:30",0.0,7.4,85.2,1014.2,299.7,1.6,2.4,315.3,0.00,5.1,11.2,"23:26:56",1
"18/03/26","23:40",0.0,7.5,85.4,1014.2,323.9,2.0,2.5,325.2,0.00,5.3,11.0,"23:33:52",1
"18/03/26","23:50",0.0,7.1,84.5,1014.5,291.7,1.1,1.7,313.0,0.00,4.7,10.9,"23:47:20",1
"18/03/26","24:00",0.0,7.0,86.4,1014.5,305.3,2.1,2.8,322.7,0.00,4.9,11.0,"23:53:28",1
